Location: Oulou
(10.7667°N, 12.5167°W)
Time: 05:32:27
(UTC+00:00)

SL-4 R/B - Pass Details

Date: 20 September 2019
Orbit: 428 x 667 km, 51.6° (Epoch: 15 October)

Event Time Altitude Azimuth Distance (km) Brightness Sun altitude
Rises 19:38:07 0° 199° (SSW) 2,761 5.8 -13.2°
Reaches altitude 10° 19:40:38 10° 188° (S) 1,818 4.7 -13.8°
Maximum altitude 19:44:17 30° 126° (SE) 941 2.7 -14.7°
Enters shadow 19:45:10 27° 100° (E) 1,001 2.7 -15.0°
